[[{"header":{"parameterUnit":"m.s-1","parameterCategory":1,"la1":30.2991,"la2":30.254,"lo1":-89.0895,"lo2":-89.0444,"dy":0.0017,"dx":0.0017,"nx":28,"ny":28,"refTime":"2024-08-30T21:00:00:Z","depth":0,"parameterNumber":2,"parameterNumberName":"U-component_of_WINDS"},"data":[0,0,0,0,0,0,0,0,0,0,0,0,0,0,0,0,0,0,0,0,0,0,0,0,0,0,0,0,0,0,0,0,0,0,0,0,0,0,0,0,0,0,0,0,0,0,0,0,0,0,0,0,0,0,0,0,0,0,-6.5641,-6.5642,0,-6.5742,-6.5743,-6.5744,-6.5675,-6.5672,-6.5669,-6.5666,-6.5763,-6.5768,-6.5773,0,0,0,0,0,0,0,0,0,0,0,0,0,-6.5382,-6.5387,-6.5641,-6.5642,-6.5643,-6.5741,-6.5743,-6.5744,-6.5675,-6.5672,-6.5668,-6.5664,-6.5761,-6.5767,-6.5774,0,0,0,0,0,0,0,0,0,0,0,0,0,-6.5489,-6.5388,-6.5641,-6.5621,-6.562,-6.5741,-6.5743,-6.5744,-6.5676,-6.5672,-6.5667,-6.5663,-6.5759,-6.5767,-6.5775,-6.5918,0,0,-6.58,-6.5803,0,0,0,0,0,0,0,0,-6.5483,-6.5499,-6.5623,-6.5623,-6.5622,-6.5691,-6.5687,-6.5802,-6.5677,-6.5655,-6.5666,-6.566,-6.5742,-6.5751,-6.578,-6.5923,-6.5927,-6.58,-6.5805,-6.5809,-6.5811,0,0,0,0,0,0,0,-6.5476,-6.5494,-6.568,-6.5625,-6.5624,-6.5605,-6.5615,-6.5708,-6.5723,-6.5656,-6.5652,-6.5665,-6.5741,-6.5772,-6.5782,-6.5928,-6.58,-6.5807,-6.5812,-6.5816,-6.6189,-6.6194,0,0,0,0,0,0,-6.5471,-6.5488,-6.5677,-6.5683,-6.554,-6.5613,-6.5625,-6.5674,-6.5722,-6.5725,-6.5669,-6.5661,-6.5761,-6.5772,-6.5785,-6.5953,-6.5809,-6.5816,-6.5821,-6.6184,-6.6191,-6.6196,0,0,0,0,0,0,-6.5466,-6.5489,-6.5673,-6.5585,-6.5607,-6.5623,-6.5678,-6.5678,-6.5709,-6.5731,-6.5733,-6.5699,-6.5758,-6.5774,-6.5885,-6.5956,-6.582,-6.5828,-6.6179,-6.6186,-6.6193,-6.6293,0,0,0,0,0,0,-6.5459,-6.5487,-6.5544,-6.5587,-6.5612,-6.5774,-6.5683,-6.5683,-6.5724,-6.5716,-6.576,-6.5763,-6.5755,-6.5873,-6.5893,-6.5965,-6.5834,-6.6172,-6.6182,-6.6191,-6.6284,-6.6303,-6.632,0,0,0,0,0,-6.545,-6.5567,-6.5547,-6.557,-6.5683,-6.5779,-6.5793,-6.5783,-6.5731,-6.5786,-6.58,-6.5761,-6.5946,-6.5885,-6.5907,-6.5982,-6.6168,-6.6179,-6.619,-6.6275,-6.6299,-6.632,0,0,0,0,0,0,-6.5531,-6.5573,-6.5551,-6.5686,-6.573,-6.5767,-6.5837,-6.581,-6.5867,-6.5856,-6.584,-6.5851,-6.5967,-6.5986,-6.5918,-6.6122,-6.6048,-6.6064,-6.6105,-6.6128,-6.6146,-6.6138,-6.5841,0,0,0,0,0,-6.5565,-6.5641,-6.5673,-6.5789,-6.5812,-6.5821,-6.5862,-6.5851,-6.5894,-6.5912,-6.5934,-6.5975,-6.6042,-6.6086,-6.615,-6.6287,-6.6293,-6.6349,-6.6367,-6.6382,-6.6395,-6.6466,-6.649,-6.6233,-6.6233,-6.6233,0,0,-6.5635,-6.5667,-6.5716,-6.5806,-6.5838,-6.5914,-6.5837,-6.5921,-6.5977,-6.5924,-6.603,-6.6048,-6.6093,-6.6217,-6.6273,-6.6237,-6.6468,-6.6396,-6.6408,-6.6413,-6.648,-6.6504,-6.6525,-6.6241,-6.6239,-6.6238,0,0,-6.5801,-6.5835,-6.5934,-6.5968,-6.6019,-6.6024,-6.6048,-6.6089,-6.6099,-6.6206,-6.6167,-6.6232,-6.6349,-6.6382,-6.6413,-6.6591,-6.6556,-6.6612,-6.6706,-6.6775,-6.6795,-6.6813,-6.6873,-6.6895,-6.6626,-6.6626,-6.6626,0,-6.5881,-6.5997,-6.5988,-6.6075,-6.6114,-6.6072,-6.617,-6.6203,-6.6271,-6.6298,-6.6257,-6.64,-6.6428,-6.6558,-6.6601,-6.663,-6.6653,-6.6606,-6.6793,-6.6811,-6.6827,-6.6884,-6.6907,-6.6632,-6.6631,-6.6631,-6.663,0,-6.6091,-6.6172,-6.6246,-6.6314,-6.6361,-6.6454,-6.6456,-6.6505,-6.649,-6.6498,-6.6606,-6.6638,-6.6705,-6.6735,-6.6721,-6.6863,-6.6838,-6.6796,-6.672,-6.6858,-6.6911,-6.6933,-6.6641,-6.6639,-6.6637,-6.6635,0,0,-6.631,-6.6372,-6.6399,-6.6428,-6.648,-6.6541,-6.663,-6.6698,-6.6738,-6.6786,-6.6858,-6.6958,-6.6918,-6.6955,-6.6944,-6.7005,-6.7139,-6.6954,-6.6955,-6.6985,-6.7292,-6.7322,-6.7348,-6.7117,-6.7122,-6.7125,-6.7287,0,-6.6477,-6.6635,-6.6629,-6.6775,-6.6847,-6.6808,-6.6885,-6.6923,-6.6934,-6.6994,-6.7004,-6.7074,-6.7018,-6.7039,-6.7098,-6.711,-6.72,-6.7099,-6.7181,-6.7184,-6.7168,-6.7376,-6.7408,-6.756,-6.7309,-6.7312,-6.7315,0,-6.6693,-6.6749,-6.6903,-6.6942,-6.6972,-6.7042,-6.7102,-6.7162,-6.7204,-6.7207,-6.7247,-6.7226,-6.7313,-6.7237,-6.7355,-6.7286,-6.7319,-6.733,-6.7336,-6.734,-6.7256,-6.7383,-6.7608,-6.763,-6.7348,-6.7345,-6.7343,0,-6.6833,-6.6948,-6.7054,-6.708,-6.713,-6.7179,-6.7201,-6.7239,-6.7279,-6.7331,-6.7356,-6.7417,-6.745,-6.7496,-6.7491,-6.7437,-6.7609,-6.7534,-6.7611,-6.7611,-6.7647,-6.7644,-6.7877,-6.7673,-6.7673,-6.7673,-6.7672,0,-6.7018,-6.7113,-6.7117,-6.7182,-6.7286,-6.7277,-6.7379,-6.7396,-6.7429,-6.7494,-6.7464,-6.7525,-6.7516,-6.7576,-6.7572,-6.7668,-6.7684,-6.7686,-6.7683,-6.7687,-6.7687,-6.7707,-6.7695,-6.7679,-6.7677,-6.7676,-6.7675,0,-6.7192,-6.7199,-6.7311,-6.7349,-6.7361,-6.7435,-6.7466,-6.7526,-6.7533,-6.7616,-6.7635,-6.7646,-6.7715,-6.7715,-6.7794,-6.7791,-6.7908,-6.7895,-6.7894,-6.789,-6.7966,-6.7957,-6.8217,-6.825,-6.8028,-6.803,-6.8032,0,-6.7309,-6.7381,-6.7426,-6.7468,-6.7494,-6.7563,-6.7604,-6.7597,-6.7641,-6.7693,-6.7746,-6.7813,-6.7866,-6.7978,-6.7991,-6.8051,-6.8037,-6.8124,-6.8045,-6.8046,-6.8034,-6.8029,-6.8034,-6.8138,-6.8141,-6.8143,-6.8144,0,-6.7513,-6.7513,-6.7574,-6.7637,-6.7687,-6.7736,-6.778,-6.7816,-6.7814,-6.7863,-6.7935,-6.7976,-6.8057,-6.8123,-6.818,-6.82,-6.8171,-6.8169,-6.8189,-6.8193,-6.8188,-6.8188,-6.7933,-6.8163,-6.8161,-6.8159,-6.8158,-6.8158,-6.766,-6.7721,-6.7762,-6.7831,-6.7864,-6.7906,-6.7963,-6.7978,-6.8039,-6.8105,-6.8097,-6.8175,-6.8212,-6.8287,-6.8312,-6.8371,-6.834,-6.837,-6.8377,-6.8384,-6.8391,-6.8182,-6.8382,-6.8381,-6.8381,-6.838,-6.838,0,-6.786,-6.7884,-6.7948,-6.8012,-6.8065,-6.8036,-6.8083,-6.8129,-6.8199,-6.8238,-6.8291,-6.8371,-6.8434,-6.8453,-6.8513,-6.8557,-6.8545,-6.8572,-6.8567,-6.8572,-6.8417,-6.8392,-6.8581,-6.8581,-6.8581,-6.8581,-6.8581,-6.8581,-6.797,-6.8071,-6.8075,-6.8191,-6.8214,-6.8293,-6.8322,-6.8359,-6.8389,-6.8481,-6.8534,-6.8547,-6.8576,-6.8638,-6.8693,-6.8697,-6.8718,-6.8751,-6.8749,-6.8603,-6.8583,-6.8564,-6.854,-6.8757,-6.8757,-6.8898,-6.89,-6.8901]},{"header":{"parameterUnit":"m.s-1","parameterCategory":1,"la1":30.2991,"la2":30.254,"lo1":-89.0895,"lo2":-89.0444,"dy":0.0017,"dx":0.0017,"nx":28,"ny":28,"refTime":"2024-08-30T21:00:00:Z","depth":0,"parameterNumber":3,"parameterNumberName":"V-component_of_WINDS"},"data":[0,0,0,0,0,0,0,0,0,0,0,0,0,0,0,0,0,0,0,0,0,0,0,0,0,0,0,0,0,0,0,0,0,0,0,0,0,0,0,0,0,0,0,0,0,0,0,0,0,0,0,0,0,0,0,0,0,0,2.2356,2.2356,0,2.234,2.2339,2.2339,2.2326,2.2326,2.2326,2.2326,2.2308,2.2307,2.2307,0,0,0,0,0,0,0,0,0,0,0,0,0,2.2376,2.2376,2.2356,2.2356,2.2356,2.234,2.2339,2.2339,2.2326,2.2326,2.2326,2.2326,2.2308,2.2307,2.2307,0,0,0,0,0,0,0,0,0,0,0,0,0,2.2364,2.2375,2.2356,2.2348,2.2347,2.234,2.2339,2.2339,2.2326,2.2326,2.2326,2.2326,2.2308,2.2307,2.2307,2.2307,0,0,2.2305,2.2305,0,0,0,0,0,0,0,0,2.2365,2.2363,2.2349,2.2348,2.2347,2.2335,2.234,2.2328,2.2326,2.2334,2.2326,2.2326,2.2317,2.2316,2.2313,2.2306,2.2306,2.2305,2.2305,2.2305,2.2304,0,0,0,0,0,0,0,2.2366,2.2364,2.235,2.2349,2.2348,2.2344,2.2342,2.2337,2.2327,2.2333,2.2332,2.233,2.2316,2.2313,2.2312,2.2305,2.2305,2.2305,2.2304,2.2304,2.2297,2.2297,0,0,0,0,0,0,2.2368,2.2365,2.235,2.2349,2.2356,2.2344,2.2342,2.2339,2.2327,2.2325,2.2331,2.233,2.2314,2.2313,2.2312,2.231,2.2305,2.2304,2.2304,2.2297,2.2297,2.2297,0,0,0,0,0,0,2.2368,2.2367,2.2351,2.2357,2.2354,2.2344,2.2341,2.2339,2.2336,2.2325,2.2323,2.233,2.2314,2.2312,2.2308,2.231,2.2304,2.2303,2.2297,2.2297,2.2297,2.2309,0,0,0,0,0,0,2.2369,2.2367,2.2367,2.2357,2.2354,2.2348,2.2341,2.2338,2.2335,2.2334,2.2323,2.2321,2.2314,2.2309,2.2308,2.2309,2.2303,2.2297,2.2297,2.2297,2.2308,2.2309,2.231,0,0,0,0,0,2.237,2.2371,2.2368,2.2366,2.2355,2.2349,2.2347,2.2339,2.2335,2.2335,2.2328,2.2322,2.231,2.2309,2.2307,2.2308,2.2296,2.2297,2.2297,2.2308,2.2309,2.231,0,0,0,0,0,0,2.2383,2.237,2.2366,2.2364,2.2357,2.2346,2.2346,2.2341,2.2335,2.2334,2.2323,2.2321,2.2318,2.2312,2.2312,2.2307,2.2302,2.2302,2.2311,2.2312,2.2313,2.2315,2.2303,0,0,0,0,0,2.2385,2.2382,2.2371,2.237,2.2367,2.2357,2.2355,2.2348,2.2341,2.2338,2.2331,2.2324,2.2318,2.2315,2.2309,2.2307,2.2304,2.2307,2.2308,2.2309,2.2309,2.2307,2.2307,2.2298,2.2298,2.2298,0,0,2.2391,2.2383,2.2382,2.2373,2.2367,2.2363,2.2355,2.2352,2.2349,2.2338,2.2333,2.2327,2.2319,2.2315,2.2314,2.2311,2.2311,2.2309,2.231,2.231,2.2307,2.2308,2.2309,2.2299,2.2298,2.2298,0,0,2.2399,2.2393,2.2392,2.2386,2.2377,2.2371,2.237,2.236,2.2355,2.2351,2.2342,2.2338,2.2329,2.2323,2.2319,2.2323,2.2317,2.2321,2.2327,2.2325,2.2326,2.2326,2.2327,2.2328,2.2322,2.2322,2.2322,0,2.2407,2.2401,2.2392,2.2389,2.2385,2.2374,2.2373,2.2367,2.2357,2.2354,2.2351,2.2339,2.2333,2.2327,2.2328,2.2325,2.2324,2.2323,2.2326,2.2327,2.2327,2.2328,2.2328,2.2322,2.2322,2.2322,2.2322,0,2.2411,2.2407,2.2407,2.2397,2.2393,2.2391,2.238,2.2377,2.2371,2.2364,2.2359,2.2351,2.2343,2.2341,2.2335,2.2335,2.2333,2.2328,2.2323,2.2329,2.2329,2.233,2.2323,2.2323,2.2323,2.2322,0,0,2.2427,2.2412,2.2412,2.2407,2.2397,2.2393,2.2389,2.2382,2.2379,2.2372,2.2368,2.236,2.2356,2.2351,2.2344,2.2342,2.2345,2.2337,2.2337,2.2339,2.2343,2.2347,2.2347,2.2341,2.2341,2.2341,2.2343,0,2.2433,2.2427,2.2418,2.2415,2.2411,2.24,2.2397,2.239,2.2383,2.2378,2.237,2.2365,2.2359,2.2356,2.2353,2.2345,2.2346,2.2345,2.2337,2.2336,2.2339,2.2348,2.2352,2.2355,2.2344,2.2344,2.2344,0,2.244,2.2434,2.243,2.2419,2.2416,2.2414,2.2406,2.2401,2.2392,2.2387,2.2381,2.2373,2.2368,2.2364,2.2356,2.2355,2.2351,2.2347,2.2346,2.2346,2.2341,2.2347,2.2356,2.2356,2.2344,2.2344,2.2344,0,2.2452,2.2442,2.2439,2.2435,2.2422,2.242,2.2414,2.2405,2.2401,2.2393,2.239,2.2382,2.2377,2.2371,2.2361,2.2358,2.2354,2.2349,2.2349,2.235,2.2349,2.2349,2.2358,2.2347,2.2347,2.2347,2.2347,0,2.246,2.2458,2.2444,2.2442,2.2439,2.2428,2.2425,2.2418,2.241,2.2406,2.2396,2.2392,2.2379,2.2373,2.2365,2.2359,2.2358,2.2353,2.2351,2.2354,2.2354,2.2351,2.2351,2.2347,2.2347,2.2347,2.2347,0,2.2474,2.2464,2.2459,2.2447,2.2443,2.2442,2.2431,2.2428,2.242,2.2414,2.2412,2.24,2.2393,2.2382,2.2371,2.2366,2.2361,2.2358,2.2364,2.2363,2.2364,2.2364,2.2371,2.2371,2.236,2.236,2.236,0,2.2479,2.2478,2.2465,2.2461,2.2456,2.245,2.2446,2.2435,2.243,2.2419,2.2417,2.2409,2.2402,2.239,2.2379,2.2371,2.2367,2.237,2.2366,2.2368,2.2367,2.2367,2.2366,2.2371,2.2371,2.2371,2.2371,0,2.2491,2.2486,2.248,2.2472,2.2467,2.246,2.2452,2.245,2.2437,2.2432,2.2424,2.2419,2.2407,2.2399,2.2388,2.2382,2.2374,2.2373,2.2372,2.2376,2.2379,2.2377,2.2367,2.2373,2.2373,2.2373,2.2372,2.2372,2.25,2.2498,2.2488,2.2482,2.2475,2.2468,2.2464,2.2456,2.2449,2.2439,2.2433,2.2425,2.2415,2.24,2.2394,2.2387,2.2384,2.2383,2.2383,2.2383,2.2384,2.238,2.2385,2.2385,2.2385,2.2385,2.2385,0,2.2511,2.2504,2.2498,2.2488,2.2482,2.2476,2.2467,2.2462,2.2456,2.2447,2.244,2.243,2.2422,2.241,2.2401,2.2397,2.2394,2.2395,2.2396,2.2394,2.2388,2.2389,2.2398,2.2398,2.2398,2.2398,2.2398,2.2398,2.2516,2.2511,2.2505,2.2497,2.2489,2.2482,2.2478,2.2471,2.2463,2.2453,2.2446,2.2439,2.2429,2.2418,2.2409,2.2406,2.2403,2.2405,2.2401,2.2396,2.2394,2.2393,2.2394,2.2405,2.2405,2.2408,2.2408,2.2408]}]]